Change the Weather History Date:

Wednesday, April 3, 2013

  Actual Average Record
Temperature  
Mean Temperature 27 °F -  
Max Temperature 37 °F 49 °F 75 °F (1956)
Min Temperature 17 °F 30 °F 13 °F (1954)
Degree Days  
Heating Degree Days 38    
Moisture  
Dew Point 15 °F    
Average Humidity 56    
Maximum Humidity 85    
Minimum Humidity 30    
Precipitation  
Precipitation 0.00 in - - ()
Sea Level Pressure  
Sea Level Pressure 30.36 in    
Wind  
Wind Speed 3 mph (NW)    
Max Wind Speed 14 mph    
Max Gust Speed 18 mph    
Visibility 10 miles    
Events      
Averages and records for this station are not official NWS values.
T = Trace of Precipitation, MM = Missing Value Source: NWS Daily Summary

Daily Weather History Graph

Daily Weather History Graph

Search for Another Location

Airport or City:

Trip Planner

Search our weather history database for the weather conditions in past years. The results will help you decide how hot, cold, wet, or windy it might be!

Date:

Astronomy

Apr. 03, 2013 Rise Set
Actual Time 7:22 AM EDT 8:15 PM EDT
Civil Twilight 6:53 AM EDT 8:44 PM EDT
Nautical Twilight 6:18 AM EDT 9:19 PM EDT
Astronomical Twilight 5:42 AM EDT 9:56 PM EDT
Moon 3:16 AM EDT (4/3) 1:14 PM EDT (4/3)
Length of Visible Light 13h 50m
Length of Day
12h 52m
Last Quarter, 45% of the Moon is Illuminated
Apr 3
Last Quarter
Apr 10
New
Apr 18
First Quarter
Apr 25
Full
May 2
Last Quarter

Hourly Weather History & Observations

Time (EDT) Temp. Windchill Dew Point Humidity Pressure Visibility Wind Dir Wind Speed Gust Speed Precip Events Conditions
12:15 AM 25.3 °F - 19.2 °F 78% 30.25 in 10.0 mi Calm Calm - N/A   Clear
12:35 AM 22.8 °F - 17.4 °F 80% 30.25 in 10.0 mi Calm Calm - N/A   Clear
12:55 AM 25.3 °F - 18.0 °F 74% 30.25 in 10.0 mi Calm Calm - N/A   Clear
1:15 AM 27.9 °F 24.0 °F 17.4 °F 65% 30.26 in 10.0 mi North 3.5 mph - N/A   Clear
1:35 AM 27.9 °F 21.5 °F 16.2 °F 62% 30.27 in 10.0 mi NE 5.8 mph - N/A   Clear
1:55 AM 27.9 °F 22.6 °F 16.3 °F 62% 30.28 in 10.0 mi NE 4.6 mph - N/A   Clear
2:15 AM 27.3 °F 22.0 °F 16.0 °F 62% 30.29 in 10.0 mi NE 4.6 mph - N/A   Clear
2:35 AM 25.9 °F - 14.5 °F 62% 30.29 in 10.0 mi Calm Calm - N/A   Clear
2:55 AM 24.1 °F - 14.4 °F 66% 30.29 in 10.0 mi Calm Calm - N/A   Clear
3:14 AM 22.8 °F - 14.5 °F 71% 30.30 in 10.0 mi Calm Calm - N/A   Clear
3:35 AM 20.7 °F - 14.2 °F 76% 30.30 in 10.0 mi Calm Calm - N/A   Clear
3:55 AM 21.6 °F - 14.9 °F 76% 30.30 in 10.0 mi Calm Calm - N/A   Clear
4:14 AM 21.4 °F - 14.9 °F 76% 30.30 in 10.0 mi Calm Calm - N/A   Clear
4:35 AM 20.3 °F - 15.1 °F 80% 30.31 in 10.0 mi Calm Calm - N/A   Clear
4:55 AM 20.3 °F - 15.1 °F 80% 30.31 in 10.0 mi Calm Calm - N/A   Clear
5:14 AM 20.5 °F - 15.3 °F 80% 30.32 in 10.0 mi Calm Calm - N/A   Clear
5:35 AM 20.3 °F - 15.6 °F 82% 30.32 in 10.0 mi Calm Calm - N/A   Clear
5:54 AM 18.0 °F - 13.6 °F 83% 30.33 in 10.0 mi Calm Calm - N/A   Clear
6:15 AM 17.6 °F - 13.5 °F 84% 30.34 in 10.0 mi Calm Calm - N/A   Clear
6:35 AM 18.9 °F - 14.9 °F 85% 30.34 in 10.0 mi Calm Calm - N/A   Scattered Clouds
6:54 AM 20.3 °F 15.4 °F 15.3 °F 81% 30.35 in 10.0 mi North 3.5 mph - N/A   Scattered Clouds
7:15 AM 23.0 °F 17.0 °F 12.2 °F 63% 30.35 in 10.0 mi NNW 4.6 mph - N/A   Clear
7:35 AM 24.1 °F 19.7 °F 10.6 °F 56% 30.36 in 10.0 mi NNW 3.5 mph - N/A   Clear
7:54 AM 25.3 °F 21.1 °F 10.4 °F 53% 30.36 in 10.0 mi North 3.5 mph - N/A   Clear
8:15 AM 27.0 °F - 11.8 °F 53% 30.37 in 10.0 mi Calm Calm - N/A   Clear
8:34 AM 30.2 °F - 15.8 °F 55% 30.38 in 10.0 mi Calm Calm - N/A   Clear
8:55 AM 30.2 °F 25.4 °F 14.7 °F 53% 30.39 in 10.0 mi North 4.6 mph - N/A   Scattered Clouds
9:15 AM 32.2 °F 25.8 °F 15.1 °F 49% 30.40 in 10.0 mi NNW 6.9 mph - N/A   Scattered Clouds
9:34 AM 32.0 °F 24.2 °F 15.4 °F 51% 30.40 in 10.0 mi NNW 9.2 mph - N/A   Mostly Cloudy
9:55 AM 32.5 °F 25.5 °F 16.0 °F 51% 30.41 in 10.0 mi NNW 8.1 mph - N/A   Scattered Clouds
10:14 AM 35.1 °F 26.9 °F 15.4 °F 45% 30.41 in 10.0 mi NNW 11.5 mph 16.1 mph N/A   Mostly Cloudy
10:35 AM 35.1 °F 29.3 °F 12.9 °F 40% 30.42 in 10.0 mi NNW 6.9 mph - N/A   Scattered Clouds
10:55 AM 35.1 °F 28.6 °F 12.9 °F 40% 30.43 in 10.0 mi NW 8.1 mph - N/A   Scattered Clouds
11:14 AM 35.1 °F - 13.3 °F 41% 30.43 in 10.0 mi Calm Calm - N/A   Clear
11:35 AM 35.1 °F 30.1 °F 11.3 °F 37% 30.44 in 10.0 mi WNW 5.8 mph - N/A   Clear
11:55 AM 35.1 °F 27.4 °F 12.6 °F 40% 30.45 in 10.0 mi North 10.4 mph 18.4 mph N/A   Clear
12:15 PM 35.2 °F 26.2 °F 14.4 °F 42% 30.46 in 10.0 mi WNW 13.8 mph - N/A   Scattered Clouds
12:35 PM 35.1 °F 28.6 °F 14.9 °F 44% 30.47 in 10.0 mi NW 8.1 mph 18.4 mph N/A   Scattered Clouds
12:55 PM 35.1 °F 26.9 °F 14.0 °F 42% 30.46 in 10.0 mi NNW 11.5 mph 17.3 mph N/A   Scattered Clouds
1:15 PM 35.1 °F 27.4 °F 13.6 °F 41% 30.46 in 10.0 mi WNW 10.4 mph 18.4 mph N/A   Scattered Clouds
1:35 PM 35.1 °F 27.9 °F 13.3 °F 41% 30.45 in 10.0 mi West 9.2 mph - N/A   Clear
1:54 PM 35.1 °F 28.6 °F 13.5 °F 41% 30.45 in 10.0 mi West 8.1 mph - N/A   Clear
2:15 PM 36.0 °F 29.0 °F 14.5 °F 42% 30.44 in 10.0 mi WNW 9.2 mph 16.1 mph N/A   Clear
2:35 PM 35.1 °F 29.3 °F 14.2 °F 42% 30.43 in 10.0 mi WNW 6.9 mph - N/A   Clear
2:54 PM 35.1 °F 27.9 °F 13.3 °F 41% 30.42 in 10.0 mi NNW 9.2 mph - N/A   Clear
3:15 PM 35.8 °F 29.4 °F 13.6 °F 40% 30.40 in 10.0 mi NNW 8.1 mph - N/A   Clear
3:35 PM 37.6 °F 35.1 °F 14.0 °F 38% 30.41 in 10.0 mi North 3.5 mph - N/A   Clear
3:54 PM 35.8 °F 33.0 °F 10.6 °F 35% 30.40 in 10.0 mi East 3.5 mph - N/A   Clear
4:15 PM 37.6 °F 33.1 °F 11.8 °F 35% 30.39 in 10.0 mi NNE 5.8 mph - N/A   Clear
4:35 PM 37.6 °F 33.1 °F 9.9 °F 32% 30.38 in 10.0 mi NE 5.8 mph - N/A   Clear
4:54 PM 37.6 °F 34.0 °F 9.1 °F 31% 30.38 in 10.0 mi East 4.6 mph - N/A   Clear
5:15 PM 37.6 °F - 8.2 °F 30% 30.37 in 10.0 mi Calm Calm - N/A   Clear
5:35 PM 37.6 °F - 8.2 °F 30% 30.37 in 10.0 mi Calm Calm - N/A   Clear
5:55 PM 37.6 °F - 12.2 °F 35% 30.36 in 10.0 mi Calm Calm - N/A   Clear
6:15 PM 37.6 °F 31.6 °F 15.6 °F 41% 30.36 in 10.0 mi West 8.1 mph - N/A   Clear
6:35 PM 35.1 °F 27.9 °F 16.0 °F 46% 30.36 in 10.0 mi West 9.2 mph - N/A   Clear
6:55 PM 35.1 °F 27.9 °F 16.7 °F 47% 30.37 in 10.0 mi West 9.2 mph - N/A   Clear
7:15 PM 34.7 °F 26.9 °F 18.0 °F 51% 30.38 in 10.0 mi West 10.4 mph - N/A   Clear
7:34 PM 32.5 °F 24.8 °F 16.9 °F 53% 30.38 in 10.0 mi WSW 9.2 mph - N/A   Clear
7:55 PM 31.6 °F 25.1 °F 16.7 °F 54% 30.37 in 10.0 mi WSW 6.9 mph - N/A   Clear
8:15 PM 30.2 °F 24.3 °F 17.1 °F 58% 30.36 in 10.0 mi WSW 5.8 mph - N/A   Clear
8:34 PM 30.2 °F - 17.4 °F 59% 30.34 in 10.0 mi Calm Calm - N/A   Clear
8:55 PM 30.2 °F - 18.5 °F 62% 30.34 in 10.0 mi Calm Calm - N/A   Clear
9:15 PM 29.3 °F - 18.5 °F 64% 30.34 in 10.0 mi Calm Calm - N/A   Clear
9:34 PM 28.0 °F 24.2 °F 19.0 °F 69% 30.34 in 10.0 mi South 3.5 mph - N/A   Clear
9:55 PM 25.0 °F - 17.2 °F 72% 30.33 in 10.0 mi Calm Calm - N/A   Clear
10:15 PM 29.3 °F - 19.8 °F 68% 30.33 in 10.0 mi Calm Calm - N/A   Clear
10:34 PM 27.9 °F 24.0 °F 19.4 °F 71% 30.32 in 10.0 mi SE 3.5 mph - N/A   Clear
10:55 PM 27.9 °F 24.0 °F 18.9 °F 69% 30.32 in 10.0 mi SSE 3.5 mph - N/A   Clear
11:15 PM 27.9 °F - 18.9 °F 69% 30.32 in 10.0 mi Calm Calm - N/A   Clear
11:35 PM 27.9 °F - 18.7 °F 68% 30.32 in 10.0 mi Calm Calm - N/A   Clear
11:55 PM 27.9 °F 24.0 °F 17.8 °F 66% 30.31 in 10.0 mi South 3.5 mph - N/A   Clear